Tracking 33200 objects as of 17-Feb-2026
HD Live streaming from Space Station
objects crossing your sky now

COSMOS 970 DEB

Track COSMOS 970 DEB now!
10-day predictions


NORAD ID: 10885
Int'l Code: 1977-121AG
Perigee: 966.4 km
Apogee: 1,045.3 km
Inclination: 65.8 °
Period: 105.1 minutes
Semi major axis: 7376 km
RCS: 0.0086 m2 (small)
Launch date: December 21, 1977
Source: Commonwealth of Independent States (former USSR) (CIS)
Launch site: TYURATAM MISSILE AND SPACE COMPLEX (TTMTR)

Note: This is SATELLITE DEBRIS
Your satellite tracking list
Your tracking list is empty




NASA's NSSDC Master Catalog

Two Line Element Set (TLE):
1 10885U 77121AG  26048.28672892  .00000733  00000-0  91190-3 0  9990
2 10885  65.7934 356.0008 0053493  88.0295  62.8140 13.70229503391114
Source of the keplerian elements: AFSPC